This is the latest recevied weather packets stored in our database for station/object KD2RHT-13. If no packets are shown the sender has not sent any weather packets the latest 10 day(s).
| Time | Temp. | Humidity | Pressure | Rain* | Wind** | Luminosity | Snow |
|---|---|---|---|---|---|---|---|
| 1777990502 | 23.33° C | 60% | 1005 hPa | 0 mm | - | 485 W/m² | - |
| 1777989895 | 22.78° C | 60% | 1005.6 hPa | 0 mm | - | 603 W/m² | - |
| 1777989592 | 22.78° C | 60% | 1005.3 hPa | 0 mm | - | 536 W/m² | - |
| 1777989289 | 22.78° C | 61% | 1005.6 hPa | 0 mm | - | 570 W/m² | - |
| 1777988985 | 22.78° C | 61% | 1005.3 hPa | 0 mm | - | 551 W/m² | - |
| 1777988682 | 22.22° C | 63% | 1005.3 hPa | 0 mm | - | 518 W/m² | - |
| 1777988378 | 21.67° C | 62% | 1005.3 hPa | 0 mm | - | 495 W/m² | - |
| 1777988076 | 21.67° C | 63% | 1005.3 hPa | 0 mm | - | 218 W/m² | - |
| 1777987772 | 21.67° C | 63% | 1005.3 hPa | 0 mm | - | 186 W/m² | - |
| 1777987468 | 21.67° C | 62% | 1005.3 hPa | 0 mm | - | 461 W/m² | - |
| 1777987166 | 21.67° C | 62% | 1005 hPa | 0 mm | - | 284 W/m² | - |
| 1777986862 | 21.67° C | 62% | 1005.3 hPa | 0 mm | - | 318 W/m² | - |
| 1777986561 | 21.67° C | 63% | 1005.3 hPa | 0 mm | - | 238 W/m² | - |
| 1777986259 | 21.67° C | 63% | 1005.3 hPa | 0 mm | - | 550 W/m² | - |
| 1777985956 | 21.11° C | 63% | 1005.3 hPa | 0 mm | - | 194 W/m² | - |
| 1777985653 | 21.11° C | 64% | 1005.3 hPa | 0 mm | - | 150 W/m² | - |
| 1777985349 | 21.11° C | 64% | 1005.6 hPa | 0 mm | - | 291 W/m² | - |
| 1777985046 | 21.11° C | 64% | 1005.3 hPa | 0 mm | - | 189 W/m² | - |
| 1777984742 | 21.11° C | 64% | 1005.6 hPa | 0 mm | - | 277 W/m² | - |
| 1777984439 | 21.11° C | 64% | 1005.6 hPa | 0 mm | - | 282 W/m² | - |
| 1777984134 | 21.11° C | 65% | 1005.3 hPa | 0 mm | - | 339 W/m² | - |
| 1777983832 | 20.56° C | 65% | 1005 hPa | 0 mm | - | 313 W/m² | - |
| 1777983529 | 20.56° C | 66% | 1005.3 hPa | 0 mm | - | 274 W/m² | - |
| 1777983226 | 20.56° C | 66% | 1005.6 hPa | 0 mm | - | 251 W/m² | - |
| 1777982922 | 20.56° C | 66% | 1005.3 hPa | 0 mm | - | 232 W/m² | - |
* Rain latest hour (hover to see other rain measurements)
** Current wind speed in m/s (hover to see current wind gust speed)